EDW252 LSZH-LEIB

Flight info

Callsign EDW252
Flight time 1h 55m
Altitude 35000
Route LSZH/28 N0458F350 VEBI4W VEBIT T50 ROTOS Z669 ULMES DCT VADAR DCT GEVEA DCT INCUS DCT BALSI DCT RETNO DCT TUPOX DCT MTG DCT DIVKO DCT VATIR DCT PIVUS DCT SULID DCT DIMIB DCT POS POS4V LEIB/06
Aircraft A320/M-V/N

Departure

Time 2026-05-06 19:25
Airport Zürich Airport (LSZH)

Arrival

Time 2026-05-06 21:20
Airport Ibiza Airport (LEIB)
Time Latitude Longitude Altitude Speed Heading
2026-05-06 19:04 47.45353 8.55647 1407 ft 0 kts
2026-05-06 19:15 47.45346 8.55646 1406 ft 2 kts
2026-05-06 19:15 47.45329 8.55644 1408 ft 2 kts
2026-05-06 19:15 47.45311 8.55641 1409 ft 2 kts
2026-05-06 19:16 47.45295 8.55638 1410 ft 2 kts 351°
2026-05-06 19:16 47.45280 8.55649 1409 ft 2 kts 281°
2026-05-06 19:16 47.45280 8.55651 1408 ft 0 kts 281°
2026-05-06 19:18 47.45281 8.55629 1411 ft 6 kts 273°
2026-05-06 19:19 47.45295 8.55572 1409 ft 8 kts 314°
2026-05-06 19:19 47.45360 8.55521 1406 ft 11 kts 337°
2026-05-06 19:19 47.45436 8.55473 1406 ft 12 kts 336°
2026-05-06 19:19 47.45509 8.55420 1403 ft 12 kts 333°
2026-05-06 19:20 47.45582 8.55368 1401 ft 12 kts 335°
2026-05-06 19:20 47.45652 8.55343 1399 ft 10 kts 20°
2026-05-06 19:20 47.45669 8.55409 1400 ft 5 kts 92°
2026-05-06 19:20 47.45664 8.55480 1402 ft 8 kts 96°
2026-05-06 19:21 47.45657 8.55569 1403 ft 13 kts 96°
2026-05-06 19:21 47.45645 8.55737 1412 ft 19 kts 96°
2026-05-06 19:21 47.45633 8.55927 1409 ft 18 kts 95°
2026-05-06 19:21 47.45619 8.56118 1411 ft 19 kts 97°
2026-05-06 19:22 47.45605 8.56315 1413 ft 19 kts 96°
2026-05-06 19:22 47.45589 8.56516 1417 ft 20 kts 97°
2026-05-06 19:22 47.45575 8.56715 1422 ft 19 kts 95°
2026-05-06 19:22 47.45563 8.56912 1420 ft 18 kts 95°
2026-05-06 19:23 47.45578 8.57004 1422 ft 0 kts 44°
2026-05-06 19:23 47.45607 8.57021 1424 ft 11 kts 13°
2026-05-06 19:23 47.45663 8.56983 1424 ft 9 kts 292°
2026-05-06 19:24 47.45674 8.56865 1422 ft 16 kts 276°
2026-05-06 19:24 47.45703 8.56435 1416 ft 76 kts 276°
2026-05-06 19:24 47.45778 8.55362 1403 ft 132 kts 276°
2026-05-06 19:24 47.45889 8.53823 1584 ft 158 kts 274°
2026-05-06 19:25 47.46021 8.52219 2314 ft 157 kts 275°
2026-05-06 19:25 47.46145 8.50612 2919 ft 163 kts 274°
2026-05-06 19:25 47.46248 8.48820 3138 ft 186 kts 268°
2026-05-06 19:25 47.45756 8.46986 3364 ft 210 kts 228°
2026-05-06 19:26 47.44596 8.45470 3722 ft 235 kts 223°
2026-05-06 19:26 47.43419 8.43705 4328 ft 245 kts 232°
2026-05-06 19:26 47.42367 8.41708 5183 ft 248 kts 235°
2026-05-06 19:26 47.41353 8.39633 6061 ft 250 kts 236°
2026-05-06 19:27 47.40338 8.37525 6882 ft 253 kts 236°
2026-05-06 19:27 47.39316 8.35417 7684 ft 256 kts 235°
2026-05-06 19:27 47.38393 8.33162 8510 ft 259 kts 245°
2026-05-06 19:27 47.37604 8.30753 9339 ft 262 kts 243°
2026-05-06 19:28 47.36766 8.28342 10118 ft 266 kts 243°
2026-05-06 19:28 47.35873 8.25829 10420 ft 288 kts 242°
2026-05-06 19:28 47.34901 8.23115 10604 ft 311 kts 242°
2026-05-06 19:28 47.33860 8.20212 10883 ft 327 kts 242°
2026-05-06 19:29 47.32787 8.17217 11519 ft 333 kts 242°
2026-05-06 19:29 47.31700 8.14182 12201 ft 337 kts 242°
2026-05-06 19:29 47.30602 8.11110 12887 ft 341 kts 242°
2026-05-06 19:29 47.29490 8.07989 13515 ft 347 kts 242°
2026-05-06 19:30 47.28365 8.04829 14128 ft 351 kts 242°
2026-05-06 19:30 47.27224 8.01623 14725 ft 355 kts 242°
2026-05-06 19:30 47.26215 7.98289 15329 ft 359 kts 247°
2026-05-06 19:30 47.25266 7.94864 15940 ft 362 kts 246°
2026-05-06 19:31 47.24303 7.91413 16532 ft 366 kts 246°
2026-05-06 19:31 47.23329 7.87933 17127 ft 370 kts 246°
2026-05-06 19:31 47.21341 7.80869 18297 ft 377 kts 246°
2026-05-06 19:32 47.20332 7.77295 18818 ft 381 kts 246°
2026-05-06 19:32 47.19269 7.73716 19332 ft 383 kts 241°
2026-05-06 19:32 47.17845 7.70389 19857 ft 385 kts 231°
2026-05-06 19:32 47.16182 7.67299 20370 ft 387 kts 230°
2026-05-06 19:33 47.14496 7.64183 20873 ft 390 kts 230°
2026-05-06 19:33 47.12804 7.61058 21369 ft 393 kts 230°
2026-05-06 19:33 47.11099 7.57911 21892 ft 395 kts 230°
2026-05-06 19:33 47.09383 7.54743 22372 ft 398 kts 230°
2026-05-06 19:34 47.07658 7.51558 22832 ft 400 kts 230°
2026-05-06 19:34 47.05915 7.48342 23271 ft 403 kts 230°
2026-05-06 19:34 47.04164 7.45114 23681 ft 406 kts 230°
2026-05-06 19:34 47.02402 7.41870 24064 ft 408 kts 230°
2026-05-06 19:35 47.00628 7.38612 24459 ft 410 kts 230°
2026-05-06 19:35 46.98833 7.35330 24757 ft 415 kts 230°
2026-05-06 19:35 46.97041 7.32067 25093 ft 417 kts 230°
2026-05-06 19:35 46.95217 7.28748 25454 ft 419 kts 230°
2026-05-06 19:36 46.93385 7.25411 25849 ft 420 kts 230°
2026-05-06 19:36 46.91551 7.22062 26246 ft 421 kts 230°
2026-05-06 19:36 46.89718 7.18715 26596 ft 423 kts 230°
2026-05-06 19:36 46.87866 7.15345 26916 ft 425 kts 230°
2026-05-06 19:37 46.86005 7.11964 27232 ft 427 kts 230°
2026-05-06 19:37 46.84139 7.08578 27537 ft 429 kts 230°
2026-05-06 19:37 46.82260 7.05176 27836 ft 431 kts 230°
2026-05-06 19:37 46.81004 7.02904 28036 ft 433 kts 230°
2026-05-06 19:38 46.78467 6.98318 28414 ft 435 kts 230°
2026-05-06 19:38 46.76561 6.94871 28684 ft 437 kts 230°
2026-05-06 19:38 46.74653 6.91418 29008 ft 437 kts 231°
2026-05-06 19:38 46.72738 6.87961 29227 ft 440 kts 231°
2026-05-06 19:39 46.70835 6.84535 29545 ft 440 kts 231°
2026-05-06 19:39 46.68907 6.81074 29905 ft 439 kts 231°
2026-05-06 19:39 46.66987 6.77630 30227 ft 438 kts 231°
2026-05-06 19:39 46.65054 6.74210 30537 ft 437 kts 229°
2026-05-06 19:40 46.63049 6.70896 30853 ft 435 kts 227°
2026-05-06 19:40 46.60987 6.67679 31077 ft 436 kts 226°
2026-05-06 19:40 46.58874 6.64485 31241 ft 438 kts 226°
2026-05-06 19:40 46.56740 6.61289 31363 ft 440 kts 226°
2026-05-06 19:41 46.54606 6.58075 31492 ft 442 kts 226°
2026-05-06 19:41 46.52476 6.54832 31619 ft 443 kts 226°
2026-05-06 19:41 46.50358 6.51574 31745 ft 444 kts 226°
2026-05-06 19:41 46.48244 6.48305 31873 ft 445 kts 226°
2026-05-06 19:42 46.46126 6.45024 31998 ft 445 kts 226°
2026-05-06 19:42 46.44011 6.41743 32148 ft 446 kts 227°
2026-05-06 19:42 46.41885 6.38457 32278 ft 447 kts 226°
2026-05-06 19:42 46.39756 6.35176 32408 ft 448 kts 226°
2026-05-06 19:43 46.37642 6.31929 32531 ft 448 kts 226°
2026-05-06 19:43 46.35503 6.28653 32662 ft 448 kts 226°
2026-05-06 19:43 46.33362 6.25383 32794 ft 447 kts 226°
2026-05-06 19:43 46.31216 6.22109 32928 ft 447 kts 226°
2026-05-06 19:44 46.29071 6.18850 33059 ft 447 kts 225°
2026-05-06 19:44 46.26710 6.15964 33192 ft 447 kts 214°
2026-05-06 19:44 46.24001 6.13759 33327 ft 447 kts 204°
2026-05-06 19:44 46.21053 6.12333 33463 ft 449 kts 194°
2026-05-06 19:45 46.17973 6.11568 33594 ft 449 kts 191°
2026-05-06 19:45 46.14883 6.10880 33728 ft 449 kts 191°
2026-05-06 19:45 46.11798 6.10194 33874 ft 449 kts 191°
2026-05-06 19:45 46.08711 6.09511 33993 ft 448 kts 191°
2026-05-06 19:46 46.05620 6.08829 34131 ft 448 kts 191°
2026-05-06 19:46 46.02540 6.08147 34252 ft 448 kts 191°
2026-05-06 19:46 45.99465 6.07468 34478 ft 443 kts 191°
2026-05-06 19:46 45.96448 6.06807 34849 ft 436 kts 191°
2026-05-06 19:47 45.93450 6.06149 34951 ft 433 kts 191°
2026-05-06 19:47 45.90474 6.05492 34976 ft 432 kts 191°
2026-05-06 19:47 45.84540 6.04170 34974 ft 431 kts 191°
2026-05-06 19:48 45.78614 6.02856 34970 ft 430 kts 191°
2026-05-06 19:48 45.72743 6.01562 34969 ft 430 kts 192°
2026-05-06 19:49 45.66826 6.00257 34947 ft 430 kts 191°
2026-05-06 19:49 45.60921 5.98964 34941 ft 429 kts 192°
2026-05-06 19:50 45.55019 5.97674 34948 ft 429 kts 192°
2026-05-06 19:50 45.50067 5.96594 34953 ft 428 kts 192°
2026-05-06 19:51 45.44235 5.95167 34953 ft 427 kts 194°
2026-05-06 19:51 45.38450 5.93308 34946 ft 426 kts 196°
2026-05-06 19:52 45.32683 5.91383 34957 ft 426 kts 196°
2026-05-06 19:52 45.26890 5.89540 34968 ft 426 kts 195°
2026-05-06 19:53 45.21098 5.87760 34965 ft 426 kts 195°
2026-05-06 19:53 45.15297 5.85972 34974 ft 425 kts 195°
2026-05-06 19:54 45.09525 5.84183 34980 ft 425 kts 195°
2026-05-06 19:54 45.03742 5.82392 34959 ft 424 kts 196°
2026-05-06 19:55 44.97999 5.80617 34969 ft 422 kts 196°
2026-05-06 19:55 44.92256 5.78863 34971 ft 421 kts 196°
2026-05-06 19:56 44.86542 5.77120 34973 ft 420 kts 196°
2026-05-06 19:56 44.80867 5.75380 34961 ft 419 kts 196°
2026-05-06 19:57 44.75171 5.73632 34969 ft 419 kts 197°
2026-05-06 19:57 44.69480 5.71894 34969 ft 418 kts 196°
2026-05-06 19:58 44.63789 5.70159 34976 ft 419 kts 196°
2026-05-06 19:58 44.58090 5.68432 34950 ft 420 kts 196°
2026-05-06 19:59 44.52374 5.66697 34939 ft 420 kts 196°
2026-05-06 19:59 44.46653 5.64957 34922 ft 421 kts 196°
2026-05-06 20:00 44.40920 5.63227 34935 ft 421 kts 196°
2026-05-06 20:00 44.35357 5.60900 34942 ft 416 kts 205°
2026-05-06 20:01 44.29973 5.57944 34944 ft 416 kts 205°
2026-05-06 20:01 44.24582 5.55000 34941 ft 416 kts 205°
2026-05-06 20:02 44.19197 5.52063 34951 ft 415 kts 205°
2026-05-06 20:02 44.13822 5.49127 34957 ft 415 kts 205°
2026-05-06 20:03 44.08448 5.46199 34940 ft 414 kts 205°
2026-05-06 20:03 44.03089 5.43292 34955 ft 413 kts 205°
2026-05-06 20:04 43.97742 5.40395 34961 ft 412 kts 205°
2026-05-06 20:04 43.92395 5.37500 34959 ft 412 kts 205°
2026-05-06 20:05 43.87098 5.34640 34946 ft 411 kts 205°
2026-05-06 20:05 43.81741 5.31747 34965 ft 411 kts 205°
2026-05-06 20:06 43.76429 5.28874 34959 ft 412 kts 205°
2026-05-06 20:06 43.71049 5.25985 34960 ft 412 kts 205°
2026-05-06 20:07 43.65706 5.23120 34957 ft 412 kts 205°
2026-05-06 20:07 43.60408 5.20283 34979 ft 411 kts 205°
2026-05-06 20:08 43.55035 5.17419 34968 ft 411 kts 205°
2026-05-06 20:08 43.49732 5.14592 34954 ft 411 kts 206°
2026-05-06 20:09 43.44396 5.11754 34963 ft 411 kts 206°
2026-05-06 20:09 43.39091 5.08842 34970 ft 408 kts 211°
2026-05-06 20:10 43.34352 5.04629 34971 ft 404 kts 218°
2026-05-06 20:10 43.29707 5.00247 34938 ft 404 kts 218°
2026-05-06 20:11 43.25068 4.95890 34949 ft 404 kts 218°
2026-05-06 20:11 43.20415 4.91526 34966 ft 405 kts 218°
2026-05-06 20:12 43.15762 4.87179 34965 ft 405 kts 218°
2026-05-06 20:12 43.11101 4.82829 34943 ft 405 kts 218°
2026-05-06 20:13 43.06484 4.78514 34964 ft 404 kts 218°
2026-05-06 20:13 43.01605 4.74641 34966 ft 406 kts 213°
2026-05-06 20:14 42.96664 4.70899 34973 ft 406 kts 213°
2026-05-06 20:14 42.91733 4.67168 34961 ft 405 kts 213°
2026-05-06 20:15 42.86801 4.63434 34969 ft 405 kts 213°
2026-05-06 20:15 42.81866 4.59712 34977 ft 405 kts 213°
2026-05-06 20:16 42.76922 4.55993 35001 ft 406 kts 213°
2026-05-06 20:16 42.71984 4.52282 34995 ft 406 kts 213°
2026-05-06 20:17 42.67026 4.48562 34995 ft 406 kts 213°
2026-05-06 20:17 42.62070 4.44853 34992 ft 406 kts 213°
2026-05-06 20:18 42.57122 4.41154 34994 ft 406 kts 213°
2026-05-06 20:18 42.52161 4.37451 34969 ft 406 kts 213°
2026-05-06 20:19 42.47213 4.33759 34985 ft 406 kts 213°
2026-05-06 20:19 42.42258 4.30079 34996 ft 405 kts 213°
2026-05-06 20:20 42.37310 4.26409 34995 ft 405 kts 213°
2026-05-06 20:20 42.32367 4.22742 34977 ft 405 kts 213°
2026-05-06 20:21 42.27417 4.19081 35002 ft 405 kts 213°
2026-05-06 20:21 42.22477 4.15437 35005 ft 405 kts 213°
2026-05-06 20:22 42.17527 4.11786 35007 ft 405 kts 213°
2026-05-06 20:22 42.12580 4.08151 35007 ft 405 kts 213°
2026-05-06 20:23 42.07636 4.04530 34993 ft 404 kts 213°
2026-05-06 20:23 42.02702 4.00906 34997 ft 404 kts 213°
2026-05-06 20:24 41.97793 3.97309 35001 ft 404 kts 213°
2026-05-06 20:24 41.92859 3.93707 35001 ft 403 kts 213°
2026-05-06 20:25 41.87802 3.90162 34694 ft 418 kts 212°
2026-05-06 20:25 41.85186 3.88419 34479 ft 420 kts 212°
2026-05-06 20:25 41.82562 3.86694 34268 ft 421 kts 212°
2026-05-06 20:26 41.79931 3.84967 34057 ft 420 kts 212°
2026-05-06 20:26 41.77310 3.83236 33830 ft 420 kts 212°
2026-05-06 20:26 41.74693 3.81491 33576 ft 420 kts 212°
2026-05-06 20:26 41.72073 3.79734 33346 ft 421 kts 212°
2026-05-06 20:27 41.69458 3.77978 33078 ft 420 kts 212°
2026-05-06 20:27 41.66839 3.76217 32835 ft 420 kts 212°
2026-05-06 20:27 41.64230 3.74466 32597 ft 421 kts 212°
2026-05-06 20:27 41.61609 3.72714 32359 ft 421 kts 212°
2026-05-06 20:28 41.58991 3.70969 32132 ft 421 kts 212°
2026-05-06 20:28 41.56365 3.69222 31896 ft 422 kts 212°
2026-05-06 20:28 41.53740 3.67479 31660 ft 422 kts 212°
2026-05-06 20:28 41.51101 3.65726 31430 ft 422 kts 212°
2026-05-06 20:29 41.48469 3.63981 31232 ft 421 kts 212°
2026-05-06 20:29 41.45849 3.62246 31300 ft 421 kts 212°
2026-05-06 20:29 41.41484 3.59358 31435 ft 421 kts 212°
2026-05-06 20:30 41.33609 3.54144 31056 ft 422 kts 212°
2026-05-06 20:30 41.30976 3.52401 30906 ft 422 kts 212°
2026-05-06 20:31 41.28349 3.50660 30734 ft 422 kts 212°
2026-05-06 20:31 41.25710 3.48918 30586 ft 424 kts 212°
2026-05-06 20:31 41.23063 3.47176 30440 ft 425 kts 211°
2026-05-06 20:31 41.20413 3.45439 30289 ft 425 kts 211°
2026-05-06 20:32 41.16693 3.43671 30097 ft 436 kts 198°
2026-05-06 20:32 41.14685 3.43135 29992 ft 437 kts 198°
2026-05-06 20:32 41.11691 3.42345 29816 ft 438 kts 198°
2026-05-06 20:32 41.08703 3.41562 29646 ft 438 kts 197°
2026-05-06 20:33 41.05704 3.40780 29447 ft 439 kts 197°
2026-05-06 20:33 41.02738 3.40003 29277 ft 439 kts 197°
2026-05-06 20:33 40.99750 3.39217 29106 ft 438 kts 197°
2026-05-06 20:33 40.96757 3.38426 28943 ft 438 kts 197°
2026-05-06 20:34 40.93776 3.37637 28769 ft 437 kts 197°
2026-05-06 20:34 40.90801 3.36851 28606 ft 436 kts 197°
2026-05-06 20:34 40.87823 3.36070 28444 ft 435 kts 197°
2026-05-06 20:34 40.84850 3.35294 28260 ft 435 kts 197°
2026-05-06 20:35 40.81886 3.34519 28093 ft 434 kts 197°
2026-05-06 20:35 40.78922 3.33740 27932 ft 434 kts 197°
2026-05-06 20:35 40.75969 3.32963 27773 ft 433 kts 197°
2026-05-06 20:35 40.73015 3.32188 27614 ft 432 kts 197°
2026-05-06 20:36 40.70062 3.31415 27456 ft 432 kts 197°
2026-05-06 20:36 40.67121 3.30644 27301 ft 431 kts 197°
2026-05-06 20:36 40.64182 3.29879 27142 ft 430 kts 197°
2026-05-06 20:36 40.61246 3.29118 26953 ft 429 kts 197°
2026-05-06 20:37 40.58317 3.28359 26985 ft 429 kts 197°
2026-05-06 20:37 40.55389 3.27601 26983 ft 430 kts 197°
2026-05-06 20:37 40.52449 3.26841 26983 ft 430 kts 197°
2026-05-06 20:37 40.49519 3.26081 26983 ft 430 kts 197°
2026-05-06 20:38 40.46579 3.25317 26983 ft 430 kts 197°
2026-05-06 20:38 40.43651 3.24556 26983 ft 430 kts 197°
2026-05-06 20:38 40.40715 3.23794 26977 ft 430 kts 197°
2026-05-06 20:38 40.37784 3.23034 26983 ft 430 kts 197°
2026-05-06 20:39 40.34847 3.22274 26986 ft 430 kts 197°
2026-05-06 20:39 40.31908 3.21516 26985 ft 430 kts 197°
2026-05-06 20:39 40.28979 3.20764 26986 ft 430 kts 197°
2026-05-06 20:39 40.26036 3.20013 26986 ft 430 kts 197°
2026-05-06 20:40 40.23102 3.19257 26986 ft 430 kts 197°
2026-05-06 20:40 40.20177 3.18498 26958 ft 430 kts 197°
2026-05-06 20:40 40.17227 3.17735 26983 ft 435 kts 197°
2026-05-06 20:40 40.14242 3.16964 26986 ft 441 kts 197°
2026-05-06 20:41 40.11208 3.16187 26986 ft 445 kts 197°
2026-05-06 20:41 40.08166 3.15410 26984 ft 446 kts 196°
2026-05-06 20:41 40.05118 3.14632 26991 ft 446 kts 197°
2026-05-06 20:41 40.02078 3.13855 26984 ft 446 kts 197°
2026-05-06 20:42 39.99025 3.13074 26986 ft 446 kts 197°
2026-05-06 20:42 39.95981 3.12294 26985 ft 446 kts 197°
2026-05-06 20:42 39.92993 3.11327 26984 ft 439 kts 205°
2026-05-06 20:42 39.90241 3.09658 26988 ft 433 kts 213°
2026-05-06 20:43 39.87609 3.07740 26985 ft 433 kts 213°
2026-05-06 20:43 39.84983 3.05824 26806 ft 433 kts 213°
2026-05-06 20:43 39.82354 3.03906 26617 ft 433 kts 213°
2026-05-06 20:43 39.79727 3.01987 26408 ft 432 kts 213°
2026-05-06 20:44 39.77106 3.00077 26211 ft 432 kts 213°
2026-05-06 20:44 39.74523 2.98203 25993 ft 430 kts 213°
2026-05-06 20:44 39.71881 2.96289 25789 ft 429 kts 213°
2026-05-06 20:44 39.69313 2.94432 25596 ft 428 kts 213°
2026-05-06 20:45 39.66716 2.92557 25404 ft 427 kts 213°
2026-05-06 20:45 39.64088 2.90657 25207 ft 426 kts 213°
2026-05-06 20:45 39.61496 2.88781 25011 ft 436 kts 213°
2026-05-06 20:45 39.58825 2.86844 24820 ft 442 kts 213°
2026-05-06 20:46 39.56126 2.84892 24634 ft 444 kts 213°
2026-05-06 20:46 39.53430 2.82951 24420 ft 443 kts 213°
2026-05-06 20:46 39.50734 2.81017 24266 ft 442 kts 213°
2026-05-06 20:46 39.48044 2.79089 24079 ft 442 kts 213°
2026-05-06 20:47 39.45367 2.77146 23905 ft 440 kts 215°
2026-05-06 20:47 39.42971 2.74758 23705 ft 434 kts 226°
2026-05-06 20:47 39.40997 2.71834 23515 ft 431 kts 233°
2026-05-06 20:47 39.39111 2.68818 23291 ft 430 kts 233°
2026-05-06 20:48 39.37227 2.65819 23049 ft 430 kts 232°
2026-05-06 20:48 39.35337 2.62821 22801 ft 430 kts 232°
2026-05-06 20:48 39.33447 2.59831 22529 ft 429 kts 232°
2026-05-06 20:48 39.31558 2.56844 22240 ft 429 kts 232°
2026-05-06 20:49 39.29674 2.53863 21980 ft 428 kts 232°
2026-05-06 20:49 39.27787 2.50877 21716 ft 427 kts 232°
2026-05-06 20:49 39.25910 2.47908 21454 ft 427 kts 232°
2026-05-06 20:49 39.24035 2.44947 21201 ft 426 kts 232°
2026-05-06 20:50 39.22159 2.41991 20948 ft 425 kts 232°
2026-05-06 20:50 39.20287 2.39048 20701 ft 425 kts 232°
2026-05-06 20:50 39.18412 2.36103 20449 ft 424 kts 232°
2026-05-06 20:50 39.16542 2.33171 20168 ft 423 kts 232°
2026-05-06 20:51 39.14677 2.30246 19938 ft 423 kts 232°
2026-05-06 20:51 39.12808 2.27316 19723 ft 423 kts 232°
2026-05-06 20:51 39.10945 2.24398 19506 ft 422 kts 232°
2026-05-06 20:51 39.09075 2.21470 19276 ft 422 kts 232°
2026-05-06 20:52 39.07210 2.18553 19063 ft 422 kts 232°
2026-05-06 20:52 39.05344 2.15632 18854 ft 421 kts 232°
2026-05-06 20:52 39.03481 2.12720 18631 ft 421 kts 232°
2026-05-06 20:52 39.01622 2.09821 18428 ft 420 kts 231°
2026-05-06 20:53 38.99762 2.06923 18210 ft 420 kts 232°
2026-05-06 20:53 38.97904 2.04024 17970 ft 419 kts 231°
2026-05-06 20:53 38.96052 2.01141 17719 ft 418 kts 231°
2026-05-06 20:53 38.94202 1.98262 17490 ft 417 kts 231°
2026-05-06 20:54 38.92356 1.95391 17245 ft 416 kts 231°
2026-05-06 20:54 38.90506 1.92535 17009 ft 415 kts 230°
2026-05-06 20:54 38.88606 1.89811 16788 ft 414 kts 228°
2026-05-06 20:54 38.86609 1.87147 16534 ft 413 kts 226°
2026-05-06 20:55 38.84470 1.84691 16300 ft 414 kts 214°
2026-05-06 20:55 38.81818 1.83138 16065 ft 416 kts 199°
2026-05-06 20:55 38.78977 1.82418 15840 ft 419 kts 187°
2026-05-06 20:55 38.76066 1.82621 15620 ft 423 kts 170°
2026-05-06 20:56 38.73335 1.84020 15392 ft 428 kts 149°
2026-05-06 20:56 38.71163 1.86593 15167 ft 426 kts 128°
2026-05-06 20:56 38.69820 1.89954 14955 ft 435 kts 108°
2026-05-06 20:56 38.69395 1.93801 14735 ft 438 kts 89°
2026-05-06 20:57 38.69983 1.97608 14512 ft 439 kts 70°
2026-05-06 20:57 38.71211 2.01189 14314 ft 438 kts 63°
2026-05-06 20:57 38.72662 2.04605 14096 ft 437 kts 60°
2026-05-06 20:57 38.74173 2.07974 13871 ft 435 kts 60°
2026-05-06 20:58 38.75641 2.11364 13663 ft 434 kts 62°
2026-05-06 20:58 38.77045 2.14774 13419 ft 431 kts 59°
2026-05-06 20:58 38.78945 2.17696 13177 ft 426 kts 37°
2026-05-06 20:58 38.81495 2.19539 12965 ft 420 kts 18°
2026-05-06 20:59 38.84323 2.20282 12960 ft 415 kts
2026-05-06 20:59 38.87185 2.20055 12979 ft 411 kts 346°
2026-05-06 20:59 38.89867 2.18855 12969 ft 407 kts 330°
2026-05-06 20:59 38.92141 2.16736 12973 ft 403 kts 313°
2026-05-06 21:00 38.93822 2.13889 12971 ft 400 kts 297°
2026-05-06 21:00 38.94807 2.10565 12974 ft 398 kts 282°
2026-05-06 21:00 38.95047 2.07089 12973 ft 396 kts 266°
2026-05-06 21:00 38.94539 2.03626 12972 ft 396 kts 252°
2026-05-06 21:01 38.93574 2.00302 12970 ft 397 kts 248°
2026-05-06 21:01 38.92468 1.97057 12551 ft 397 kts 245°
2026-05-06 21:01 38.91268 1.93819 11526 ft 403 kts 245°
2026-05-06 21:01 38.90165 1.90577 11245 ft 388 kts 251°
2026-05-06 21:02 38.89347 1.87371 11122 ft 369 kts 255°
2026-05-06 21:02 38.88709 1.84262 10987 ft 352 kts 257°
2026-05-06 21:02 38.88152 1.81217 10312 ft 355 kts 258°
2026-05-06 21:02 38.87595 1.78087 10008 ft 364 kts 258°
2026-05-06 21:03 38.87012 1.74919 9736 ft 366 kts 257°
2026-05-06 21:03 38.86397 1.71741 9446 ft 366 kts 257°
2026-05-06 21:03 38.85761 1.68593 9159 ft 365 kts 257°
2026-05-06 21:03 38.85105 1.65444 8872 ft 364 kts 256°
2026-05-06 21:04 38.84447 1.62312 8588 ft 363 kts 256°
2026-05-06 21:04 38.83791 1.59184 8119 ft 362 kts 256°
2026-05-06 21:04 38.83125 1.56094 7985 ft 361 kts 255°
2026-05-06 21:04 38.82448 1.53032 7885 ft 348 kts 255°
2026-05-06 21:05 38.81795 1.50128 7755 ft 330 kts 255°
2026-05-06 21:05 38.81173 1.47375 7636 ft 314 kts 255°
2026-05-06 21:05 38.80583 1.44747 7503 ft 299 kts 255°
2026-05-06 21:05 38.79882 1.42309 7385 ft 285 kts 245°
2026-05-06 21:06 38.78981 1.40103 7260 ft 272 kts 242°
2026-05-06 21:06 38.78112 1.38007 7135 ft 260 kts 242°
2026-05-06 21:06 38.77280 1.36001 7006 ft 250 kts 242°
2026-05-06 21:06 38.76471 1.34045 6895 ft 248 kts 242°
2026-05-06 21:07 38.75663 1.32093 6764 ft 248 kts 242°
2026-05-06 21:07 38.74855 1.30144 6640 ft 247 kts 242°
2026-05-06 21:07 38.74058 1.28218 6518 ft 243 kts 242°
2026-05-06 21:07 38.73270 1.26313 6389 ft 242 kts 241°
2026-05-06 21:08 38.72478 1.24415 6275 ft 241 kts 241°
2026-05-06 21:08 38.71687 1.22522 6143 ft 241 kts 241°
2026-05-06 21:08 38.70899 1.20631 6014 ft 241 kts 241°
2026-05-06 21:08 38.70104 1.18732 5895 ft 245 kts 240°
2026-05-06 21:09 38.69298 1.16807 5759 ft 245 kts 240°
2026-05-06 21:09 38.68485 1.14864 5635 ft 250 kts 241°
2026-05-06 21:09 38.67666 1.12905 5505 ft 250 kts 241°
2026-05-06 21:09 38.66846 1.10941 5372 ft 250 kts 240°
2026-05-06 21:10 38.66301 1.09637 5294 ft 251 kts 241°
2026-05-06 21:10 38.65480 1.07673 5167 ft 250 kts 241°
2026-05-06 21:10 38.64703 1.05680 5044 ft 251 kts 248°
2026-05-06 21:10 38.64299 1.03512 4926 ft 251 kts 261°
2026-05-06 21:11 38.64029 1.01323 4796 ft 245 kts 260°
2026-05-06 21:11 38.63987 0.99185 4669 ft 240 kts 281°
2026-05-06 21:11 38.64613 0.97235 4538 ft 237 kts 307°
2026-05-06 21:11 38.65798 0.95807 4409 ft 236 kts 332°
2026-05-06 21:12 38.67293 0.94955 4277 ft 234 kts 351°
2026-05-06 21:12 38.68878 0.95052 4157 ft 228 kts 23°
2026-05-06 21:12 38.70118 0.96215 4012 ft 221 kts 59°
2026-05-06 21:12 38.70859 0.97884 3925 ft 218 kts 65°
2026-05-06 21:13 38.71576 0.99619 3800 ft 221 kts 65°
2026-05-06 21:13 38.72300 1.01352 3782 ft 220 kts 64°
2026-05-06 21:13 38.73026 1.03085 3786 ft 222 kts 65°
2026-05-06 21:13 38.73754 1.04825 3786 ft 222 kts 64°
2026-05-06 21:14 38.74483 1.06563 3786 ft 221 kts 64°
2026-05-06 21:14 38.75208 1.08297 3779 ft 221 kts 64°
2026-05-06 21:14 38.75937 1.10041 3774 ft 222 kts 65°
2026-05-06 21:14 38.76664 1.11780 3780 ft 221 kts 63°
2026-05-06 21:15 38.77388 1.13512 3753 ft 216 kts 65°
2026-05-06 21:15 38.78085 1.15183 3554 ft 210 kts 64°
2026-05-06 21:15 38.78760 1.16802 3313 ft 207 kts 65°
2026-05-06 21:15 38.79428 1.18402 3058 ft 200 kts 64°
2026-05-06 21:16 38.80074 1.19952 2776 ft 194 kts 64°
2026-05-06 21:16 38.80700 1.21455 2518 ft 185 kts 65°
2026-05-06 21:16 38.81289 1.22871 2286 ft 175 kts 64°
2026-05-06 21:16 38.81842 1.24214 2084 ft 166 kts 65°
2026-05-06 21:17 38.82354 1.25465 1936 ft 151 kts 64°
2026-05-06 21:17 38.82835 1.26614 1657 ft 143 kts 65°
2026-05-06 21:17 38.83284 1.27713 1424 ft 136 kts 65°
2026-05-06 21:17 38.83727 1.28783 1208 ft 136 kts 63°
2026-05-06 21:18 38.84184 1.29836 1028 ft 134 kts 64°
2026-05-06 21:18 38.84631 1.30897 905 ft 137 kts 65°
2026-05-06 21:18 38.85041 1.31990 772 ft 136 kts 65°
2026-05-06 21:18 38.85523 1.33047 624 ft 137 kts 61°
2026-05-06 21:19 38.85955 1.34126 387 ft 134 kts 62°
2026-05-06 21:19 38.86405 1.35195 172 ft 136 kts 61°
2026-05-06 21:19 38.86843 1.36254 30 ft 134 kts 61°
2026-05-06 21:19 38.87204 1.37129 11 ft 84 kts 61°
2026-05-06 21:20 38.87345 1.37462 12 ft 14 kts 63°
2026-05-06 21:20 38.87411 1.37623 9 ft 23 kts 62°
2026-05-06 21:20 38.87495 1.37790 11 ft 21 kts 34°
2026-05-06 21:20 38.87618 1.37890 10 ft 22 kts 32°
2026-05-06 21:21 38.87703 1.37886 9 ft 12 kts 288°
2026-05-06 21:21 38.87672 1.37789 9 ft 16 kts 242°
2026-05-06 21:21 38.87610 1.37640 10 ft 20 kts 242°
2026-05-06 21:21 38.87600 1.37551 9 ft 7 kts 340°
2026-05-06 21:22 38.87671 1.37501 9 ft 14 kts 328°
2026-05-06 21:22 38.87695 1.37422 8 ft 12 kts 252°
2026-05-06 21:22 38.87652 1.37314 10 ft 13 kts 242°
2026-05-06 21:22 38.87611 1.37216 10 ft 12 kts 242°
2026-05-06 21:23 38.87574 1.37126 8 ft 11 kts 242°
2026-05-06 21:23 38.87540 1.37047 8 ft 10 kts 242°
2026-05-06 21:23 38.87507 1.36968 9 ft 10 kts 242°
2026-05-06 21:23 38.87470 1.36876 8 ft 12 kts 242°
2026-05-06 21:24 38.87434 1.36788 8 ft 10 kts 243°
2026-05-06 21:24 38.87458 1.36732 8 ft 6 kts 311°
2026-05-06 21:24 38.87468 1.36728 8 ft 3 kts 345°
2026-05-06 21:24 38.87484 1.36726 8 ft 1 kts 24°
2026-05-06 21:25 38.87494 1.36735 8 ft 0 kts 22°